Regional Weather Roundup
Issued by NWS

Home | Current Version | Previous Version | Graphics & Text | Print | Product List | Glossary On
Versions: 1 2 3 4 5 6 7 8 9 10 11 12 13 14 15 16 17 18 19 20 21 22 23 24 25 26 27 28 29 30 31 32 33 34 35 36 37 38 39 40 41 42 43 44 45 46 47 48 49 50
746
ASUS43 KFSD 201502
RWRSD

WEATHER ROUNDUP FOR SOUTH DAKOTA
NATIONAL WEATHER SERVICE SIOUX FALLS SD
900 AM CST FRI JAN 20 2017

NOTE: "FAIR" INDICATES FEW OR NO CLOUDS BELOW 12,000 FEET WITH NO
SIGNIFICANT WEATHER AND/OR OBSTRUCTIONS TO VISIBILITY.


SDZ001>005-009-010-012>017-201600-
NORTHWEST AND NORTH CENTRAL SOUTH DAKOTA

CITY           SKY/WX    TMP DP  RH WIND       PRES   REMARKS
BUFFALO          N/A     31  26  82 NW23      29.29F WCI  18
FAITH            N/A     24  22  91 NW15      29.34F WCI  11
MOBRIDGE       HAZE      24  19  81 NW7       29.36R VSB 1/4 WCI  16
$$

SDZ012>016-024>037-041>051-057-063-072>074-201600-
SOUTHWEST AND SOUTH CENTRAL SOUTH DAKOTA

CITY           SKY/WX    TMP DP  RH WIND       PRES   REMARKS
RAPID CTY ARPT CLOUDY    34  26  72 NW9       29.38S WCI  27
PIERRE         FOG       13  10  88 CALM      29.40R VSB 1/4
CUSTER         CLOUDY    29  21  72 NW5       29.37S WCI  24
ELLSWORTH AFB  CLOUDY    37  28  70 N18       29.36S
PHILIP         CLOUDY    18  15  88 W8        29.37S WCI   8
PINE RIDGE     CLOUDY    21  19  92 CALM      29.40S
SPEARFISH      FAIR      32  25  74 W9        29.42S WCI  24
WINNER         FAIR      27  23  85 SW7       29.39F WCI  19
$$

SDZ004>011-016>023-039-040-201600-
NORTHEAST SOUTH DAKOTA

CITY           SKY/WX    TMP DP  RH WIND       PRES   REMARKS
ABERDEEN       CLOUDY    34  31  88 E10       29.44F FOG     WCI  26
WATERTOWN      CLOUDY    35  35 100 SE10      29.45F WCI  27
BROOKINGS      CLOUDY    35  35 100 SE12      29.48R FOG     WCI  27
SISSETON         N/A     34  34 100 S8        29.49F WCI  27
$$

SDZ017-020-022-023-036>040-048>070-201600-
SOUTHEAST SOUTH DAKOTA

CITY           SKY/WX    TMP DP  RH WIND       PRES   REMARKS
SIOUX FALLS    CLOUDY    37  37 100 S10       29.51S FOG
HURON          CLOUDY    36  36 100 SE12      29.43F
CHAMBERLAIN    FOG       30  30 100 CALM      29.40S VSB<1/4
MITCHELL       CLOUDY    38  37  97 SE15      29.45S
YANKTON        MOCLDY    37  36  93 SE8       29.49S
$$

ABBREVIATIONS USED IN REMARKS
   TC - TEMPERATURE IN CELSIUS
  WCI - WIND CHILL INDEX
   HX - HEAT INDEX
  VSB - VISIBILITY





USA.gov is the U.S. government's official web portal to all federal, state and local government web resources and services.